Theta_e
287 286 286 285 285 284 282 280 279 279 278 277 277 277 276 276 275 275 275 275 274 274 274 274 273 274 273 272 273 273 271 271 268 270 272 273 273 273 274 275 276 275 276
287 286 285 284 284 282 281 278 278 277 277 277 277 276 276 275 275 276 275 274 274 273 273 272 272 274 272 272 271 271 271 271 270 269 271 272 272 274 274 274 275 277 276
286 285 283 283 282 280 278 278 278 277 277 277 276 276 275 276 275 275 275 274 273 273 272 272 272 272 271 271 271 270 271 272 271 270 270 273 273 274 274 275 275 275 276
285 284 283 282 281 279 278 277 277 277 276 276 276 276 276 275 275 275 274 273 273 273 273 272 272 271 271 271 271 272 272 272 271 271 271 272 273 274 273 272 272 274 274
284 283 282 281 280 278 277 277 277 276 276 276 275 275 275 275 275 275 275 274 273 272 272 273 272 272 274 274 274 273 272 271 272 272 271 271 270 270 270 272 270 271 272
283 282 281 280 278 278 278 277 277 276 275 275 275 274 274 274 279 279 276 274 273 272 271 271 272 272 272 275 276 278 278 275 263 266 269 269 269 271 272 270 270 269 267
283 282 280 279 278 278 277 276 276 275 275 275 274 273 273 273 281 280 278 274 273 272 271 272 272 273 272 272 274 277 277 278 278 274 269 270 270 272 271 270 270 269 268
281 280 279 279 278 278 276 276 275 275 274 274 273 273 273 273 281 280 279 274 273 272 272 271 271 271 272 272 273 273 274 273 273 273 273 273 274 273 272 272 270 268 268
281 280 279 279 278 276 276 275 275 275 274 273 274 273 272 272 280 280 278 273 272 271 272 272 271 271 274 276 275 272 269 270 274 276 277 277 276 275 274 271 265 265 264
281 281 280 280 278 276 276 275 275 276 275 273 274 273 272 272 278 280 278 273 269 270 271 272 275 273 275 278 275 269 262 269 271 268 268 269 270 269 273 270 268 264 264
283 281 280 279 278 277 276 276 276 275 274 272 272 271 271 271 270 278 279 273 270 269 269 270 272 275 277 278 279 269 268 274 266 263 264 265 266 267 268 269 269 268 265
282 280 279 279 278 277 276 276 276 274 273 271 270 269 269 269 270 275 278 279 275 267 268 271 271 276 277 278 278 277 277 273 259 259 260 262 264 266 267 268 268 269 269
280 279 279 280 279 278 276 275 274 273 272 270 269 268 267 267 266 275 276 278 279 275 272 273 276 277 278 275 274 275 270 259 257 255 260 263 265 266 267 266 267 268 268
280 280 280 279 277 277 277 275 275 272 271 270 268 267 267 266 266 266 267 267 273 273 271 268 272 275 276 274 266 268 265 264 262 262 262 264 264 263 263 265 264 264 264
280 279 279 278 277 276 275 274 274 273 274 269 269 268 265 264 266 269 267 262 262 265 266 257 259 261 266 266 263 263 263 262 261 262 261 261 262 262 262 263 263 263 262
275 273 275 275 273 272 273 268 277 276 275 277 274 268 262 270 273 275 276 276 275 275 271 267 265 266 266 265 263 262 261 262 262 262 259 260 261 260 261 261 262 261 261
273 272 272 271 271 270 270 270 270 271 276 277 277 276 274 269 275 276 276 277 277 278 275 269 263 265 265 264 263 262 260 261 261 261 260 258 259 259 259 259 260 261 260
269 271 272 272 271 271 271 270 271 270 268 269 275 276 278 278 277 277 278 278 271 265 261 261 262 262 262 261 260 260 259 260 260 260 260 259 257 257 257 257 258 258 259
267 268 269 268 268 268 267 263 264 262 266 259 257 267 267 279 279 278 278 262 258 256 257 259 257 257 257 256 256 255 258 259 259 258 258 257 257 254 255 256 258 258 258
263 265 266 266 263 262 262 263 262 262 261 261 262 267 257 259 256 257 257 256 253 252 250 250 250 249 251 253 252 253 255 255 257 256 257 257 256 254 255 255 256 256 257
263 261 264 261 263 263 263 263 263 262 262 262 262 261 265 259 259 258 259 257 251 248 248 248 248 249 249 249 249 251 254 256 256 256 256 255 254 252 253 254 254 255 256
262 261 260 262 259 260 261 261 262 262 262 261 256 259 272 259 260 259 257 252 251 252 249 248 249 249 250 250 251 252 253 254 255 255 255 254 253 252 251 252 252 254 255
258 257 256 254 257 257 258 258 260 261 260 260 260 260 259 259 257 254 252 250 251 247 247 245 249 250 248 250 251 252 252 252 251 253 254 253 252 250 247 249 251 252 254
255 256 256 255 256 257 257 257 258 259 260 260 259 259 258 257 256 254 252 251 246 249 246 246 248 250 249 249 248 249 250 250 247 251 251 250 251 246 246 247 250 252 254
252 253 254 255 254 255 256 256 257 258 259 258 257 257 256 256 254 253 253 253 251 250 248 246 245 247 250 250 249 247 248 255 253 252 246 248 249 245 246 247 250 252 253
253 254 254 255 255 257 258 258 258 258 257 257 257 256 256 255 255 255 254 252 250 248 249 246 246 248 248 249 249 251 254 257 255 254 251 249 249 249 249 249 250 253 255
Wind_Speed
11 11 12 11 11 11 10 10 10 10 10 10 9 9 8 8 6 7 6 6 7 6 5 6 6 4 3 3 2 2 1 0 3 5 4 8 11 11 11 10 10 10 10
12 11 12 11 12 12 11 9 9 11 8 9 9 9 8 7 6 7 7 5 6 6 5 5 5 4 4 3 1 2 2 2 3 10 9 9 11 11 11 11 9 9 11
13 13 12 13 12 11 10 9 9 10 9 8 8 9 9 8 8 6 7 6 6 5 4 4 4 4 3 1 1 2 2 4 4 6 11 9 9 9 12 11 12 12 10
14 14 14 13 13 12 11 10 10 8 9 8 7 8 8 8 8 8 7 6 6 5 4 4 3 3 2 1 2 4 3 4 6 8 8 9 9 11 9 11 13 10 12
14 14 14 13 13 13 12 10 9 8 7 7 8 7 7 6 5 7 7 6 6 5 3 3 4 2 2 4 3 2 4 6 6 6 8 9 9 10 11 9 12 13 11
16 16 14 13 13 13 12 11 10 9 8 8 7 7 7 4 13 12 8 7 6 5 4 4 2 3 3 6 8 11 10 6 3 3 6 9 9 10 9 11 11 12 12
15 14 15 15 15 14 12 12 10 10 8 7 7 7 6 5 14 13 11 5 6 4 5 4 3 2 3 3 9 14 14 13 14 10 9 8 12 10 12 14 13 12 12
14 14 14 15 15 13 12 11 10 9 9 8 8 7 7 5 15 14 12 5 5 5 4 5 4 3 4 4 8 10 8 6 6 7 8 9 8 11 10 10 12 12 11
16 17 16 16 15 14 13 12 9 9 7 6 6 7 8 6 15 15 12 7 6 6 6 5 4 4 7 11 9 5 5 6 10 14 15 19 21 20 16 8 7 9 12
19 18 17 16 15 15 13 13 9 8 8 6 7 7 7 7 16 17 13 5 5 5 5 5 9 6 11 14 8 3 3 7 6 3 6 9 11 11 16 8 8 9 10
13 14 14 14 15 14 14 10 10 9 8 8 8 6 7 7 9 17 18 7 6 5 4 3 4 10 13 14 17 5 5 11 3 3 6 6 6 6 6 7 8 8 9
15 15 15 15 12 11 14 11 9 10 9 9 7 4 5 6 11 17 18 18 13 6 5 5 5 12 15 17 13 10 16 13 3 4 5 6 6 6 7 8 11 10 10
15 16 17 17 14 12 13 12 9 9 8 8 8 7 7 6 6 17 18 18 18 9 6 9 13 15 18 8 7 14 5 2 2 2 5 6 6 7 10 10 10 11 12
15 14 13 14 14 13 10 9 9 8 7 7 8 8 7 5 6 5 5 4 9 7 5 4 7 12 14 8 1 4 2 3 4 5 6 6 6 5 7 7 8 9 10
12 12 12 11 13 12 12 11 10 9 12 11 10 9 7 7 7 11 11 6 4 6 4 2 1 2 7 6 3 3 4 5 4 4 5 6 6 7 6 7 7 8 8
10 8 8 9 8 8 9 3 14 11 16 19 13 10 3 7 10 15 16 16 16 16 6 7 6 7 7 6 4 4 4 5 4 4 3 5 7 7 7 8 8 8 9
10 10 8 8 9 9 8 9 11 8 14 20 18 15 14 11 17 15 15 15 16 16 9 4 4 5 5 4 4 4 4 3 3 4 5 5 6 6 7 7 8 8 9
6 9 8 8 8 9 10 10 8 9 10 9 17 15 18 18 17 16 16 15 3 2 2 2 2 3 2 3 3 4 3 4 5 5 5 5 4 5 6 7 7 8 9
6 6 6 6 6 7 6 4 4 4 7 4 1 3 4 19 15 11 12 3 3 2 2 2 2 2 3 3 3 4 5 5 5 5 5 5 5 3 6 6 7 10 11
4 7 7 6 5 5 5 6 6 6 6 6 6 7 3 4 2 3 2 2 3 3 2 3 3 3 3 4 3 3 3 3 5 5 5 5 5 4 6 6 7 8 9
5 4 7 4 6 7 7 8 8 7 8 8 7 6 13 5 5 4 3 3 3 3 4 4 4 4 3 3 3 3 4 5 5 6 5 4 4 4 4 6 7 8 8
4 4 4 6 4 5 6 5 6 7 7 7 3 4 18 4 5 5 4 4 4 4 4 4 4 4 4 4 4 4 4 6 5 5 6 5 4 5 4 6 6 7 8
3 4 3 2 3 4 4 4 5 6 6 6 6 5 2 4 3 3 4 4 3 3 3 3 4 4 4 4 5 5 5 6 5 4 6 5 6 5 4 5 6 7 7
3 3 4 3 3 3 4 5 4 5 5 5 5 4 4 3 3 4 4 3 3 4 3 3 4 5 4 5 4 4 5 5 4 5 6 5 7 4 4 5 7 8 9
3 3 3 3 3 3 3 3 4 5 5 6 5 4 4 4 4 3 3 3 3 3 4 4 3 5 8 9 8 8 7 11 8 7 4 6 7 6 5 5 7 8 9
3 3 3 3 3 3 3 3 3 3 3 3 3 4 5 4 4 4 4 4 3 3 5 4 5 8 9 8 9 10 10 12 10 11 8 6 6 6 6 7 9 8 9
Wind_Direction
161 157 155 151 141 137 138 138 140 131 135 130 128 126 126 122 111 103 101 116 106 106 98 96 96 91 84 79 61 46 43 156 267 282 278 303 306 308 306 302 303 299 302
160 155 153 142 143 140 140 136 140 135 130 133 135 131 127 124 129 129 130 115 113 106 104 97 93 95 86 82 54 331 281 257 259 301 311 315 306 304 306 311 317 309 308
156 156 150 148 146 145 139 140 142 140 139 138 138 138 139 139 128 128 124 125 113 110 112 114 120 107 122 153 270 288 265 286 278 290 290 299 302 316 326 325 323 315 309
158 156 155 154 150 149 145 147 146 147 142 141 144 143 140 137 143 137 131 128 124 123 127 122 132 164 156 241 273 260 293 311 287 277 287 303 320 330 323 322 320 321 319
160 161 160 154 151 147 148 147 143 145 142 137 137 131 136 146 148 144 141 139 138 135 133 162 181 181 246 263 262 284 283 265 271 288 303 316 318 325 324 323 311 313 313
165 163 154 153 150 151 151 151 150 146 144 139 145 152 152 158 164 159 148 152 155 158 168 191 202 238 256 282 305 295 283 281 266 270 303 300 306 313 318 314 312 319 319
164 158 158 157 156 157 157 155 157 152 143 150 156 158 163 170 173 171 166 161 164 174 190 187 210 220 256 275 291 287 295 292 298 307 298 293 303 316 311 310 311 305 301
166 161 161 162 160 157 155 160 152 155 163 160 170 170 166 188 187 182 180 172 177 194 200 208 211 236 253 256 265 265 251 256 268 276 269 285 293 306 300 303 302 303 296
173 170 165 163 160 161 164 157 158 163 156 183 172 170 173 185 196 193 189 181 200 210 213 218 219 230 267 277 276 247 268 265 278 293 300 311 310 313 310 312 304 310 310
179 174 168 168 164 166 165 160 169 177 169 171 175 183 179 183 206 203 198 182 200 215 227 234 243 229 261 266 274 219 268 291 299 317 297 300 308 298 310 302 303 303 310
166 161 164 166 162 169 170 167 171 167 156 175 182 180 184 190 214 214 215 191 205 213 224 228 228 262 270 273 276 167 238 302 349 306 310 302 298 296 295 298 301 299 298
159 157 162 167 168 173 174 177 170 167 167 174 179 187 203 201 212 227 224 224 214 196 216 222 223 256 270 271 277 289 306 325 352 330 305 305 310 309 307 306 302 296 288
160 170 173 171 175 179 183 178 169 171 174 179 189 205 215 207 217 226 230 235 238 226 209 226 232 257 264 307 296 294 312 3 312 302 288 290 293 301 304 303 300 299 293
169 175 177 182 175 181 188 182 179 170 182 186 193 207 212 199 207 202 233 250 255 253 313 283 272 276 273 284 236 284 295 260 250 262 277 289 299 300 299 301 306 309 306
172 176 179 184 187 182 190 184 194 192 195 192 204 195 181 211 220 208 203 206 216 234 244 57 319 266 261 255 232 222 235 246 249 261 278 292 296 299 302 306 301 304 300
163 165 174 176 177 181 184 154 214 203 207 220 199 182 187 198 206 212 215 218 221 225 228 229 230 237 241 237 235 254 233 249 253 263 258 284 291 299 302 305 300 299 302
168 169 171 174 179 180 185 190 197 223 211 218 213 202 193 202 219 218 218 223 230 241 245 229 202 213 227 223 239 243 253 223 234 253 265 269 283 291 301 297 298 301 303
157 171 177 186 186 188 193 198 192 183 194 201 218 212 215 209 209 215 218 232 232 32 110 165 201 203 224 245 240 244 235 247 253 259 262 264 261 275 292 292 292 297 303
162 170 174 175 182 184 178 158 161 150 192 164 107 218 270 220 225 217 224 125 150 185 214 216 215 216 223 215 233 231 247 256 255 260 260 260 263 241 279 281 286 293 295
178 168 169 170 157 156 155 162 170 186 181 186 193 189 138 88 139 180 140 129 150 198 211 216 239 226 220 220 224 223 241 243 261 258 258 254 263 246 273 281 286 292 294
171 156 164 140 177 182 181 189 188 183 192 193 199 178 180 158 172 170 177 188 185 198 212 212 230 229 233 238 231 222 237 257 251 256 259 253 258 260 258 268 278 282 285
161 165 168 184 155 170 182 172 179 189 191 185 167 195 197 147 160 165 178 187 200 202 201 195 217 210 212 218 222 225 233 252 254 249 256 254 253 252 252 268 277 281 284
137 144 150 154 154 146 161 164 176 182 179 173 161 164 139 151 161 168 182 202 208 217 231 202 223 245 236 230 220 214 233 245 230 229 253 255 260 251 229 258 274 282 282
129 142 157 159 153 161 162 169 156 158 153 148 147 147 155 164 183 194 206 210 207 229 221 222 222 226 246 249 238 232 228 235 226 245 231 240 258 245 238 247 264 266 273
99 108 121 148 149 152 136 144 146 146 149 151 159 162 166 178 195 213 232 234 235 243 251 244 228 235 251 254 252 247 247 268 258 236 207 224 243 237 240 243 258 268 270
84 94 99 97 101 113 122 133 136 141 152 162 170 178 172 176 185 210 229 233 238 237 253 245 246 252 255 255 253 256 254 261 256 239 219 215 228 237 233 241 252 258 266